Kingman, Arizona, United States (86401)
Lat: 35.19N, Lon: 114.05W
Wx Zone: AZZ003
Local Info
Past Weather Observations for Friday, April 29, 2016

NOTE: This archive is for the closest National Weather Service station to Kingman. Information may differ from the station used for current weather conditions.

Click here for Long-term Archive

Time Weather Temperature Dewpoint Humidity Pressure Winds Precip Visibility
23:51
Partly Cloudy
59°F / 15°C 34°F / 1°C 39% 29.77 in
(1008 mb)
S 10.4 mph
(S 17 kph)
- 10SM
22:51
Clear
61°F / 16°C 34°F / 1°C 36% 29.77 in
(1008 mb)
S 11.5 mph
(S 19 kph)
- 10SM
21:51
Clear
61°F / 16°C 34°F / 1°C 36% 29.8 in
(1009 mb)
S 10.4 mph
(S 17 kph)
- 10SM
20:51
Clear
59°F / 15°C 39°F / 4°C 48% 29.8 in
(1009 mb)
S 5.8 mph
(S 9 kph)
- 10SM
19:51
Partly Cloudy
61°F / 16°C 41°F / 5°C 48% 29.8 in
(1009 mb)
S 8.1 mph
(S 13 kph)
- 10SM
18:51
Mostly Cloudy
66°F / 19°C 36°F / 2°C 32% 29.83 in
(1010 mb)
SW 11.5 mph
(SW 19 kph)
- 10SM
17:51
Partly Cloudy
68°F / 20°C 36°F / 2°C 30% 29.83 in
(1010 mb)
SSW 11.5 mph
(SSW 19 kph)
- 10SM
16:51
Partly Cloudy
70°F / 21°C 34°F / 1°C 27% 29.83 in
(1010 mb)
SSW 15 mph
(SSW 24 kph)
- 10SM
15:51
Partly Cloudy
66°F / 19°C 34°F / 1°C 30% 29.86 in
(1011 mb)
SSW 9.2 mph
(SSW 15 kph)
- 10SM
14:51
Clear
70°F / 21°C 34°F / 1°C 27% 29.89 in
(1012 mb)
W 11.5 mph
(W 19 kph)
0.00 in
(0.00 mm)
10SM
13:51
Overcast
Light Rain
63°F / 17°C 43°F / 6°C 49% 29.92 in
(1013 mb)
Variable 3.5 mph
(Variable 6 kph)
0.00 in
(0.00 mm)
10SM
12:51
Mostly Cloudy
63°F / 17°C 41°F / 5°C 45% 29.92 in
(1013 mb)
SSW 5.8 mph
(SSW 9 kph)
- 10SM
11:51
Clear
64°F / 18°C 45°F / 7°C 49% 29.95 in
(1014 mb)
Variable 5.8 mph
(Variable 9 kph)
- 10SM
10:51
Clear
61°F / 16°C 43°F / 6°C 52% 29.95 in
(1014 mb)
Variable 3.5 mph
(Variable 6 kph)
- 10SM
09:51
Clear
59°F / 15°C 43°F / 6°C 55% 29.98 in
(1015 mb)
N 8.1 mph
(N 13 kph)
- 10SM
08:51
Clear
55°F / 13°C 45°F / 7°C 67% 29.95 in
(1014 mb)
Calm - 10SM
07:51
Clear
52°F / 11°C 45°F / 7°C 77% 29.92 in
(1013 mb)
WNW 3.5 mph
(WNW 6 kph)
- 10SM
06:51
Clear
48°F / 9°C 45°F / 7°C 87% 29.92 in
(1013 mb)
SE 5.8 mph
(SE 9 kph)
- 10SM
05:51
Clear
43°F / 6°C 39°F / 4°C 87% 29.92 in
(1013 mb)
SSE 8.1 mph
(SSE 13 kph)
- 10SM
04:51
Partly Cloudy
45°F / 7°C 39°F / 4°C 81% 29.92 in
(1013 mb)
Calm - 10SM
03:51
Mostly Cloudy
46°F / 8°C 41°F / 5°C 82% 29.89 in
(1012 mb)
Calm - 10SM
02:51
Partly Cloudy
46°F / 8°C 41°F / 5°C 82% 29.86 in
(1011 mb)
SSE 5.8 mph
(SSE 9 kph)
- 10SM
01:51
Clear
45°F / 7°C 43°F / 6°C 93% 29.86 in
(1011 mb)
ESE 4.6 mph
(ESE 7 kph)
- 10SM
00:51
Partly Cloudy
46°F / 8°C 45°F / 7°C 93% 29.86 in
(1011 mb)
E 6.9 mph
(E 11 kph)
- 10SM
Time Weather Temperature Dewpoint Humidity Pressure Winds Precip Visibility


Weather for websites

WeatherForYou.com, LLC is not responsible for any damages or problems caused by this service. Current weather conditions are obtained from the closest station including government and personal stations which may have varying degrees of accuracy. Weather forecasts are derived from the NOAA NDFD. Like all things, this site belongs to Jesus Christ... He just trusts us to maintain it. If you have any questions or comments email webmaster@weatherforyou.com

Copyright © 2016, WeatherForYou.com LLC. All rights reserved.